User: anonymous   Login
Location: Oshawa
(43.9000°N, 78.8670°W)
Time: 09:42:08
(UTC-04:00)
Language:

Cosmos 1707 Rocket - Orbit

View from above orbital plane
View from above orbital plane
View from above satellite
View from above satellite

Ground track
Ground track

The orbit data is extracted from the following two-line orbital elements,

1 16327U 85113B   14302.99896543  .00000582  00000-0  68791-4 0  4984
2 16327 082.5338 270.7427 0017572 277.0005 144.1243 14.82901170559407
Epoch (UTC): 29 October 2014 23:58:30
Eccentricity: 0.0017572
inclination: 82.5338°
perigee height: 608 km
apogee height: 632 km
right ascension of ascending node: 270.7427°
argument of perigee: 277.0005°
revolutions per day: 14.82901170
mean anomaly at epoch: 144.1243°
orbit number at epoch: 55940

The dashed part of the orbit path shows where the satellite is in the earth's shadow,  

DLR